{"data":{"norad_id":56469,"intl_designator":"2023-064X","name":"STARLINK-5518","alt_names":[],"object_type":"PAYLOAD","status":"ACTIVE","operator":null,"country":"US","launch_date":"2023-05-10","launch_site_code":"AFWTR","launch_vehicle":null,"mission":null,"orbit_class":"UNKNOWN","rcs_meters":null,"size_class":null,"mass_kg":null,"dimensions":null,"purposes":["comms"],"wikipedia_slug":null,"has_3d_model":false,"image_url":null,"decayed_at":null,"tle_current":{"epoch":"2026-09-20T22:00:03.000096Z","epoch_age_seconds":76008,"freshness":"FRESH","line1":"1 56469U 23064X   26263.91670139 -.00005674  00000+0 -36161-3 0  9993","line2":"2 56469  70.0012 352.2250 0004888 261.6743  56.5704 15.08000691  5718","mean_motion":15.08000691,"eccentricity":0.0004888,"inclination_deg":70.0012,"raan_deg":352.225,"arg_perigee_deg":261.6743,"mean_anomaly_deg":56.5704,"bstar":-0.00036161,"rev_number":571,"period_min":95.490672424367,"perigee_km":538.92729610421,"apogee_km":545.69272510177,"semimajor_km":6920.447010603,"source":"CELESTRAK","updated_at":"2026-09-21T09:00:33.445305Z"}}}